Location: Chavannes
(47.1090°N, 0.2226°W)
Time: 15:08:27
(UTC+00:00)

Cosmos 1844 Rocket - Pass Details

Date: 16 October 2021
Orbit: 826 x 843 km, 71.0° (Epoch: 06 December)

Event Time Altitude Azimuth Distance (km) Brightness Sun altitude
Rises 19:38:04 0° 336° (NNW) 3,378 6.4 -25.6°
Reaches altitude 10° 19:40:38 10° 343° (NNW) 2,440 5.5 -26.0°
Enters shadow 19:44:49 38° 25° (NNE) 1,242 3.4 -26.7°
